Year,Month,Day,Hour,Minute,Value (Times are PST for temperature in C)
2020,10,02,00,00,13.80
2020,10,02,00,01,13.80
2020,10,02,00,02,13.80
2020,10,02,00,03,13.80
2020,10,02,00,04,13.80
2020,10,02,00,05,13.80
2020,10,02,00,06,13.70
2020,10,02,00,07,13.70
2020,10,02,00,08,13.70
2020,10,02,00,09,13.70
2020,10,02,00,10,13.70
2020,10,02,00,11,13.70
2020,10,02,00,12,13.70
2020,10,02,00,13,13.70
2020,10,02,00,14,13.70
2020,10,02,00,15,13.70
2020,10,02,00,16,13.70
2020,10,02,00,17,13.60
2020,10,02,00,18,13.60
2020,10,02,00,19,13.60
2020,10,02,00,20,13.60
2020,10,02,00,21,13.60
2020,10,02,00,22,13.60
2020,10,02,00,23,13.60
2020,10,02,00,24,13.60
2020,10,02,00,25,13.60
2020,10,02,00,26,13.60
2020,10,02,00,27,13.50
2020,10,02,00,28,13.50
2020,10,02,00,29,13.50
2020,10,02,00,30,13.50
2020,10,02,00,31,13.50
2020,10,02,00,32,13.50
2020,10,02,00,33,13.50
2020,10,02,00,34,13.40
2020,10,02,00,35,13.40
2020,10,02,00,36,13.40
2020,10,02,00,37,13.40
2020,10,02,00,38,13.40
2020,10,02,00,39,13.40
2020,10,02,00,40,13.40
2020,10,02,00,41,13.40
2020,10,02,00,42,13.40
2020,10,02,00,43,13.40
2020,10,02,00,44,13.40
2020,10,02,00,45,13.40
2020,10,02,00,46,13.40
2020,10,02,00,47,13.40
2020,10,02,00,48,13.40
2020,10,02,00,49,13.40
2020,10,02,00,50,13.40
2020,10,02,00,51,13.40
2020,10,02,00,52,13.40
2020,10,02,00,53,13.30
2020,10,02,00,54,13.30
2020,10,02,00,55,13.30
2020,10,02,00,56,13.30
2020,10,02,00,57,13.30
2020,10,02,00,58,13.30
2020,10,02,00,59,13.30
2020,10,02,01,00,13.30
2020,10,02,01,01,13.30
2020,10,02,01,02,13.30
2020,10,02,01,03,13.30
2020,10,02,01,04,13.30
2020,10,02,01,05,13.30
2020,10,02,01,06,13.30
2020,10,02,01,07,13.30
2020,10,02,01,08,13.30
2020,10,02,01,09,13.30
2020,10,02,01,10,13.30
2020,10,02,01,11,13.30
2020,10,02,01,12,13.30
2020,10,02,01,13,13.30
2020,10,02,01,14,13.30
2020,10,02,01,15,13.30
2020,10,02,01,16,13.30
2020,10,02,01,17,13.30
2020,10,02,01,18,13.30
2020,10,02,01,19,13.30
2020,10,02,01,20,13.30
2020,10,02,01,21,13.30
2020,10,02,01,22,13.30
2020,10,02,01,23,13.30
2020,10,02,01,24,13.30
2020,10,02,01,25,13.30
2020,10,02,01,26,13.30
2020,10,02,01,27,13.30
2020,10,02,01,28,13.30
2020,10,02,01,29,13.30
2020,10,02,01,30,13.20
2020,10,02,01,31,13.20
2020,10,02,01,32,13.20
2020,10,02,01,33,13.20
2020,10,02,01,34,13.20
2020,10,02,01,35,13.10
2020,10,02,01,36,13.20
2020,10,02,01,37,13.10
2020,10,02,01,38,13.10
2020,10,02,01,39,13.10
2020,10,02,01,40,13.10
2020,10,02,01,41,13.10
2020,10,02,01,42,13.10
2020,10,02,01,43,13.10
2020,10,02,01,44,13.10
2020,10,02,01,45,13.00
2020,10,02,01,46,13.00
2020,10,02,01,47,13.00
2020,10,02,01,48,13.00
2020,10,02,01,49,12.90
2020,10,02,01,50,12.90
2020,10,02,01,51,12.90
2020,10,02,01,52,12.90
2020,10,02,01,53,12.90
2020,10,02,01,54,12.90
2020,10,02,01,55,12.90
2020,10,02,01,56,12.90
2020,10,02,01,57,12.80
2020,10,02,01,58,12.80
2020,10,02,01,59,12.80
2020,10,02,02,00,12.80
2020,10,02,02,01,12.80
2020,10,02,02,02,12.80
2020,10,02,02,03,12.80
2020,10,02,02,04,12.80
2020,10,02,02,05,12.80
2020,10,02,02,06,12.70
2020,10,02,02,07,12.70
2020,10,02,02,08,12.70
2020,10,02,02,09,12.70
2020,10,02,02,10,12.70
2020,10,02,02,11,12.70
2020,10,02,02,12,12.70
2020,10,02,02,13,12.70
2020,10,02,02,14,12.70
2020,10,02,02,15,12.70
2020,10,02,02,16,12.70
2020,10,02,02,17,12.70
2020,10,02,02,18,12.70
2020,10,02,02,19,12.70
2020,10,02,02,20,12.70
2020,10,02,02,21,12.70
2020,10,02,02,22,12.70
2020,10,02,02,23,12.70
2020,10,02,02,24,12.70
2020,10,02,02,25,12.70
2020,10,02,02,26,12.60
2020,10,02,02,27,12.60
2020,10,02,02,28,12.60
2020,10,02,02,29,12.60
2020,10,02,02,30,12.60
2020,10,02,02,31,12.60
2020,10,02,02,32,12.60
2020,10,02,02,33,12.50
2020,10,02,02,34,12.50
2020,10,02,02,35,12.60
2020,10,02,02,36,12.60
2020,10,02,02,37,12.60
2020,10,02,02,38,12.60
2020,10,02,02,39,12.60
2020,10,02,02,40,12.60
2020,10,02,02,41,12.60
2020,10,02,02,42,12.70
2020,10,02,02,43,12.70
2020,10,02,02,44,12.70
2020,10,02,02,45,12.70
2020,10,02,02,46,12.70
2020,10,02,02,47,12.70
2020,10,02,02,48,12.70
2020,10,02,02,49,12.60
2020,10,02,02,50,12.60
2020,10,02,02,51,12.70
2020,10,02,02,52,12.60
2020,10,02,02,53,12.60
2020,10,02,02,54,12.60
2020,10,02,02,55,12.60
2020,10,02,02,56,12.60
2020,10,02,02,57,12.60
2020,10,02,02,58,12.50
2020,10,02,02,59,12.50
2020,10,02,03,00,12.50
2020,10,02,03,01,12.50
2020,10,02,03,02,12.40
2020,10,02,03,03,12.40
2020,10,02,03,04,12.40
2020,10,02,03,05,12.40
2020,10,02,03,06,12.40
2020,10,02,03,07,12.40
2020,10,02,03,08,12.40
2020,10,02,03,09,12.40
2020,10,02,03,10,12.40
2020,10,02,03,11,12.40
2020,10,02,03,12,12.40
2020,10,02,03,13,12.40
2020,10,02,03,14,12.40
2020,10,02,03,15,12.40
2020,10,02,03,16,12.30
2020,10,02,03,17,12.30
2020,10,02,03,18,12.30
2020,10,02,03,19,12.30
2020,10,02,03,20,12.30
2020,10,02,03,21,12.30
2020,10,02,03,22,12.30
2020,10,02,03,23,12.30
2020,10,02,03,24,12.30
2020,10,02,03,25,12.30
2020,10,02,03,26,12.30
2020,10,02,03,27,12.30
2020,10,02,03,28,12.30
2020,10,02,03,29,12.30
2020,10,02,03,30,12.30
2020,10,02,03,31,12.30
2020,10,02,03,32,12.30
2020,10,02,03,33,12.30
2020,10,02,03,34,12.30
2020,10,02,03,35,12.30
2020,10,02,03,36,12.30
2020,10,02,03,37,12.30
2020,10,02,03,38,12.30
2020,10,02,03,39,12.30
2020,10,02,03,40,12.20
2020,10,02,03,41,12.20
2020,10,02,03,42,12.20
2020,10,02,03,43,12.20
2020,10,02,03,44,12.20
2020,10,02,03,45,12.20
2020,10,02,03,46,12.20
2020,10,02,03,47,12.20
2020,10,02,03,48,12.20
2020,10,02,03,49,12.20
2020,10,02,03,50,12.20
2020,10,02,03,51,12.20
2020,10,02,03,52,12.20
2020,10,02,03,53,12.20
2020,10,02,03,54,12.20
2020,10,02,03,55,12.20
2020,10,02,03,56,12.20
2020,10,02,03,57,12.20
2020,10,02,03,58,12.20
2020,10,02,03,59,12.20
2020,10,02,04,00,12.20
2020,10,02,04,01,12.20
2020,10,02,04,02,12.10
2020,10,02,04,03,12.10
2020,10,02,04,04,12.10
2020,10,02,04,05,12.10
2020,10,02,04,06,12.10
2020,10,02,04,07,12.10
2020,10,02,04,08,12.10
2020,10,02,04,09,12.00
2020,10,02,04,10,12.00
2020,10,02,04,11,12.00
2020,10,02,04,12,12.00
2020,10,02,04,13,12.00
2020,10,02,04,14,11.90
2020,10,02,04,15,12.00
2020,10,02,04,16,11.90
2020,10,02,04,17,12.00
2020,10,02,04,18,12.00
2020,10,02,04,19,11.90
2020,10,02,04,20,12.00
2020,10,02,04,21,12.00
2020,10,02,04,22,11.90
2020,10,02,04,23,12.00
2020,10,02,04,24,12.00
2020,10,02,04,25,12.00
2020,10,02,04,26,12.00
2020,10,02,04,27,11.90
2020,10,02,04,28,11.90
2020,10,02,04,29,11.90
2020,10,02,04,30,11.90
2020,10,02,04,31,11.90
2020,10,02,04,32,11.90
2020,10,02,04,33,11.80
2020,10,02,04,34,11.80
2020,10,02,04,35,11.80
2020,10,02,04,36,11.80
2020,10,02,04,37,11.80
2020,10,02,04,38,11.80
2020,10,02,04,39,11.70
2020,10,02,04,40,11.70
2020,10,02,04,41,11.70
2020,10,02,04,42,11.70
2020,10,02,04,43,11.70
2020,10,02,04,44,11.70
2020,10,02,04,45,11.70
2020,10,02,04,46,11.70
2020,10,02,04,47,11.70
2020,10,02,04,48,11.70
2020,10,02,04,49,11.70
2020,10,02,04,50,11.70
2020,10,02,04,51,11.70
2020,10,02,04,52,11.70
2020,10,02,04,53,11.70
2020,10,02,04,54,11.70
2020,10,02,04,55,11.70
2020,10,02,04,56,11.70
2020,10,02,04,57,11.70
2020,10,02,04,58,11.60
2020,10,02,04,59,11.60
2020,10,02,05,00,11.60
2020,10,02,05,01,11.60
2020,10,02,05,02,11.60
2020,10,02,05,03,11.60
2020,10,02,05,04,11.60
2020,10,02,05,05,11.60
2020,10,02,05,06,11.60
2020,10,02,05,07,11.60
2020,10,02,05,08,11.60
2020,10,02,05,09,11.60
2020,10,02,05,10,11.60
2020,10,02,05,11,11.60
2020,10,02,05,12,11.60
2020,10,02,05,13,11.60
2020,10,02,05,14,11.60
2020,10,02,05,15,11.60
2020,10,02,05,16,11.60
2020,10,02,05,17,11.60
2020,10,02,05,18,11.60
2020,10,02,05,19,11.60
2020,10,02,05,20,11.60
2020,10,02,05,21,11.60
2020,10,02,05,22,11.60
2020,10,02,05,23,11.50
2020,10,02,05,24,11.50
2020,10,02,05,25,11.50
2020,10,02,05,26,11.50
2020,10,02,05,27,11.50
2020,10,02,05,28,11.50
2020,10,02,05,29,11.50
2020,10,02,05,30,11.50
2020,10,02,05,31,11.50
2020,10,02,05,32,11.40
2020,10,02,05,33,11.40
2020,10,02,05,34,11.40
2020,10,02,05,35,11.40
2020,10,02,05,36,11.40
2020,10,02,05,37,11.40
2020,10,02,05,38,11.50
2020,10,02,05,39,11.50
2020,10,02,05,40,11.50
2020,10,02,05,41,11.50
2020,10,02,05,42,11.50
2020,10,02,05,43,11.50
2020,10,02,05,44,11.50
2020,10,02,05,45,11.40
2020,10,02,05,46,11.40
2020,10,02,05,47,11.40
2020,10,02,05,48,11.40
2020,10,02,05,49,11.40
2020,10,02,05,50,11.40
2020,10,02,05,51,11.40
2020,10,02,05,52,11.40
2020,10,02,05,53,11.40
2020,10,02,05,54,11.30
2020,10,02,05,55,11.30
2020,10,02,05,56,11.40
2020,10,02,05,57,11.30
2020,10,02,05,58,11.30
2020,10,02,05,59,11.30
2020,10,02,06,00,11.30
2020,10,02,06,01,11.30
2020,10,02,06,02,11.30
2020,10,02,06,03,11.30
2020,10,02,06,04,11.30
2020,10,02,06,05,11.30
2020,10,02,06,06,11.30
2020,10,02,06,07,11.30
2020,10,02,06,08,11.30
2020,10,02,06,09,11.30
2020,10,02,06,10,11.20
2020,10,02,06,11,11.20
2020,10,02,06,12,11.20
2020,10,02,06,13,11.20
2020,10,02,06,14,11.20
2020,10,02,06,15,11.20
2020,10,02,06,16,11.20
2020,10,02,06,17,11.20
2020,10,02,06,18,11.20
2020,10,02,06,19,11.20
2020,10,02,06,20,11.20
2020,10,02,06,21,11.20
2020,10,02,06,22,11.20
2020,10,02,06,23,11.20
2020,10,02,06,24,11.20
2020,10,02,06,25,11.10
2020,10,02,06,26,11.10
2020,10,02,06,27,11.10
2020,10,02,06,28,11.10
2020,10,02,06,29,11.10
2020,10,02,06,30,11.10
2020,10,02,06,31,11.10
2020,10,02,06,32,11.10
2020,10,02,06,33,11.10
2020,10,02,06,34,11.00
2020,10,02,06,35,11.00
2020,10,02,06,36,11.00
2020,10,02,06,37,11.00
2020,10,02,06,38,11.00
2020,10,02,06,39,10.90
2020,10,02,06,40,10.90
2020,10,02,06,41,10.90
2020,10,02,06,42,10.90
2020,10,02,06,43,10.90
2020,10,02,06,44,10.90
2020,10,02,06,45,10.90
2020,10,02,06,46,10.90
2020,10,02,06,47,10.90
2020,10,02,06,48,10.90
2020,10,02,06,49,10.90
2020,10,02,06,50,10.90
2020,10,02,06,51,10.90
2020,10,02,06,52,10.90
2020,10,02,06,53,10.90
2020,10,02,06,54,10.90
2020,10,02,06,55,10.90
2020,10,02,06,56,10.90
2020,10,02,06,57,10.90
2020,10,02,06,58,10.90
2020,10,02,06,59,10.90
2020,10,02,07,00,10.90
2020,10,02,07,01,10.90
2020,10,02,07,02,10.90
2020,10,02,07,03,10.90
2020,10,02,07,04,10.90
2020,10,02,07,05,10.90
2020,10,02,07,06,10.90
2020,10,02,07,07,10.90
2020,10,02,07,08,10.90
2020,10,02,07,09,10.90
2020,10,02,07,10,10.90
2020,10,02,07,11,10.90
2020,10,02,07,12,10.90
2020,10,02,07,13,10.90
2020,10,02,07,14,10.90
2020,10,02,07,15,10.90
2020,10,02,07,16,10.90
2020,10,02,07,17,10.90
2020,10,02,07,18,11.00
2020,10,02,07,19,11.00
2020,10,02,07,20,11.00
2020,10,02,07,21,11.00
2020,10,02,07,22,11.00
2020,10,02,07,23,10.90
2020,10,02,07,24,10.90
2020,10,02,07,25,10.90
2020,10,02,07,26,10.90
2020,10,02,07,27,10.90
2020,10,02,07,28,10.90
2020,10,02,07,29,10.90
2020,10,02,07,30,10.90
2020,10,02,07,31,10.90
2020,10,02,07,32,10.90
2020,10,02,07,33,10.90
2020,10,02,07,34,10.90
2020,10,02,07,35,10.90
2020,10,02,07,36,10.90
2020,10,02,07,37,10.90
2020,10,02,07,38,10.80
2020,10,02,07,39,10.90
2020,10,02,07,40,10.80
2020,10,02,07,41,10.80
2020,10,02,07,42,10.80
2020,10,02,07,43,10.80
2020,10,02,07,44,10.80
2020,10,02,07,45,10.80
2020,10,02,07,46,10.80
2020,10,02,07,47,10.80
2020,10,02,07,48,10.80
2020,10,02,07,49,10.80
2020,10,02,07,50,10.80
2020,10,02,07,51,10.80
2020,10,02,07,52,10.80
2020,10,02,07,53,10.80
2020,10,02,07,54,10.80
2020,10,02,07,55,10.80
2020,10,02,07,56,10.80
2020,10,02,07,57,10.80
2020,10,02,07,58,10.80
2020,10,02,07,59,10.80
2020,10,02,08,00,10.80
2020,10,02,08,01,10.80
2020,10,02,08,02,10.80
2020,10,02,08,03,10.80
2020,10,02,08,04,10.80
2020,10,02,08,05,10.80
2020,10,02,08,06,10.80
2020,10,02,08,07,10.90
2020,10,02,08,08,10.90
2020,10,02,08,09,10.90
2020,10,02,08,10,11.00
2020,10,02,08,11,11.00
2020,10,02,08,12,11.00
2020,10,02,08,13,11.10
2020,10,02,08,14,11.10
2020,10,02,08,15,11.10
2020,10,02,08,16,11.20
2020,10,02,08,17,11.20
2020,10,02,08,18,11.20
2020,10,02,08,19,11.30
2020,10,02,08,20,11.30
2020,10,02,08,21,11.30
2020,10,02,08,22,11.30
2020,10,02,08,23,11.30
2020,10,02,08,24,11.30
2020,10,02,08,25,11.30
2020,10,02,08,26,11.30
2020,10,02,08,27,11.40
2020,10,02,08,28,11.40
2020,10,02,08,29,11.40
2020,10,02,08,30,11.40
2020,10,02,08,31,11.40
2020,10,02,08,32,11.50
2020,10,02,08,33,11.50
2020,10,02,08,34,11.50
2020,10,02,08,35,11.50
2020,10,02,08,36,11.50
2020,10,02,08,37,11.60
2020,10,02,08,38,11.60
2020,10,02,08,39,11.60
2020,10,02,08,40,11.60
2020,10,02,08,41,11.70
2020,10,02,08,42,11.70
2020,10,02,08,43,11.70
2020,10,02,08,44,11.70
2020,10,02,08,45,11.80
2020,10,02,08,46,11.80
2020,10,02,08,47,11.90
2020,10,02,08,48,11.90
2020,10,02,08,49,12.00
2020,10,02,08,50,12.00
2020,10,02,08,51,12.10
2020,10,02,08,52,12.10
2020,10,02,08,53,12.10
2020,10,02,08,54,12.20
2020,10,02,08,55,12.20
2020,10,02,08,56,12.30
2020,10,02,08,57,12.30
2020,10,02,08,58,12.30
2020,10,02,08,59,12.40
2020,10,02,09,00,12.40
2020,10,02,09,01,12.50
2020,10,02,09,02,12.50
2020,10,02,09,03,12.60
2020,10,02,09,04,12.60
2020,10,02,09,05,12.70
2020,10,02,09,06,12.70
2020,10,02,09,07,12.80
2020,10,02,09,08,12.80
2020,10,02,09,09,12.90
2020,10,02,09,10,12.90
2020,10,02,09,11,13.00
2020,10,02,09,12,13.00
2020,10,02,09,13,13.10
2020,10,02,09,14,13.20
2020,10,02,09,15,13.20
2020,10,02,09,16,13.30
2020,10,02,09,17,13.30
2020,10,02,09,18,13.30
2020,10,02,09,19,13.40
2020,10,02,09,20,13.50
2020,10,02,09,21,13.50
2020,10,02,09,22,13.60
2020,10,02,09,23,13.60
2020,10,02,09,24,13.70
2020,10,02,09,25,13.70
2020,10,02,09,26,13.80
2020,10,02,09,27,13.80
2020,10,02,09,28,13.80
2020,10,02,09,29,13.90
2020,10,02,09,30,13.90
2020,10,02,09,31,14.00
2020,10,02,09,32,14.10
2020,10,02,09,33,14.10
2020,10,02,09,34,14.10
2020,10,02,09,35,14.20
2020,10,02,09,36,14.20
2020,10,02,09,37,14.20
2020,10,02,09,38,14.30
2020,10,02,09,39,14.30
2020,10,02,09,40,14.40
2020,10,02,09,41,14.40
2020,10,02,09,42,14.50
2020,10,02,09,43,14.60
2020,10,02,09,44,14.70
2020,10,02,09,45,14.80
2020,10,02,09,46,14.90
2020,10,02,09,47,15.00
2020,10,02,09,48,15.00
2020,10,02,09,49,15.10
2020,10,02,09,50,15.20
2020,10,02,09,51,15.20
2020,10,02,09,52,15.20
2020,10,02,09,53,15.30
2020,10,02,09,54,15.30
2020,10,02,09,55,15.40
2020,10,02,09,56,15.40
2020,10,02,09,57,15.50
2020,10,02,09,58,15.50
2020,10,02,09,59,15.60
2020,10,02,10,00,15.70
2020,10,02,10,01,15.70
2020,10,02,10,02,15.70
2020,10,02,10,03,15.80
2020,10,02,10,04,15.80
2020,10,02,10,05,15.90
2020,10,02,10,06,15.90
2020,10,02,10,07,16.00
2020,10,02,10,08,16.00
2020,10,02,10,09,16.10
2020,10,02,10,10,16.10
2020,10,02,10,11,16.20
2020,10,02,10,12,16.20
2020,10,02,10,13,16.20
2020,10,02,10,14,16.20
2020,10,02,10,15,16.30
2020,10,02,10,16,16.30
2020,10,02,10,17,16.30
2020,10,02,10,18,16.30
2020,10,02,10,19,16.30
2020,10,02,10,20,16.40
2020,10,02,10,21,16.40
2020,10,02,10,22,16.40
2020,10,02,10,23,16.40
2020,10,02,10,24,16.40
2020,10,02,10,25,16.50
2020,10,02,10,26,16.50
2020,10,02,10,27,16.50
2020,10,02,10,28,16.60
2020,10,02,10,29,16.60
2020,10,02,10,30,16.70
2020,10,02,10,31,16.70
2020,10,02,10,32,16.80
2020,10,02,10,33,16.80
2020,10,02,10,34,16.80
2020,10,02,10,35,16.80
2020,10,02,10,36,16.80
2020,10,02,10,37,16.80
2020,10,02,10,38,16.90
2020,10,02,10,39,16.90
2020,10,02,10,40,16.90
2020,10,02,10,41,16.90
2020,10,02,10,42,16.90
2020,10,02,10,43,16.90
2020,10,02,10,44,17.00
2020,10,02,10,45,17.00
2020,10,02,10,46,17.00
2020,10,02,10,47,17.00
2020,10,02,10,48,17.10
2020,10,02,10,49,17.10
2020,10,02,10,50,17.10
2020,10,02,10,51,17.20
2020,10,02,10,52,17.20
2020,10,02,10,53,17.20
2020,10,02,10,54,17.30
2020,10,02,10,55,17.40
2020,10,02,10,56,17.50
2020,10,02,10,57,17.50
2020,10,02,10,58,17.60
2020,10,02,10,59,17.70
2020,10,02,11,00,17.80
2020,10,02,11,01,17.80
2020,10,02,11,02,17.90
2020,10,02,11,03,18.00
2020,10,02,11,04,18.10
2020,10,02,11,05,18.10
2020,10,02,11,06,18.20
2020,10,02,11,07,18.30
2020,10,02,11,08,18.30
2020,10,02,11,09,18.40
2020,10,02,11,10,18.40
2020,10,02,11,11,18.50
2020,10,02,11,12,18.60
2020,10,02,11,13,18.60
2020,10,02,11,14,18.70
2020,10,02,11,15,18.80
2020,10,02,11,16,18.80
2020,10,02,11,17,18.90
2020,10,02,11,18,18.90
2020,10,02,11,19,19.00
2020,10,02,11,20,19.10
2020,10,02,11,21,19.10
2020,10,02,11,22,19.20
2020,10,02,11,23,19.20
2020,10,02,11,24,19.20
2020,10,02,11,25,19.20
2020,10,02,11,26,19.20
2020,10,02,11,27,19.10
2020,10,02,11,28,19.10
2020,10,02,11,29,19.10
2020,10,02,11,30,19.10
2020,10,02,11,31,19.10
2020,10,02,11,32,19.20
2020,10,02,11,33,19.20
2020,10,02,11,34,19.20
2020,10,02,11,35,19.20
2020,10,02,11,36,19.30
2020,10,02,11,37,19.30
2020,10,02,11,38,19.30
2020,10,02,11,39,19.30
2020,10,02,11,40,19.20
2020,10,02,11,41,19.20
2020,10,02,11,42,19.10
2020,10,02,11,43,19.10
2020,10,02,11,44,19.10
2020,10,02,11,45,19.00
2020,10,02,11,46,19.10
2020,10,02,11,47,19.10
2020,10,02,11,48,19.20
2020,10,02,11,49,19.20
2020,10,02,11,50,19.30
2020,10,02,11,51,19.30
2020,10,02,11,52,19.40
2020,10,02,11,53,19.50
2020,10,02,11,54,19.50
2020,10,02,11,55,19.60
2020,10,02,11,56,19.60
2020,10,02,11,57,19.60
2020,10,02,11,58,19.70
2020,10,02,11,59,19.70
2020,10,02,12,00,19.80
2020,10,02,12,01,19.90
2020,10,02,12,02,19.90
2020,10,02,12,03,20.00
2020,10,02,12,04,20.00
2020,10,02,12,05,20.00
2020,10,02,12,06,20.00
2020,10,02,12,07,20.10
2020,10,02,12,08,20.10
2020,10,02,12,09,20.10
2020,10,02,12,10,20.10
2020,10,02,12,11,20.00
2020,10,02,12,12,20.10
2020,10,02,12,13,20.10
2020,10,02,12,14,20.10
2020,10,02,12,15,20.10
2020,10,02,12,16,20.20
2020,10,02,12,17,20.20
2020,10,02,12,18,20.20
2020,10,02,12,19,20.20
2020,10,02,12,20,20.20
2020,10,02,12,21,20.20
2020,10,02,12,22,20.10
2020,10,02,12,23,20.10
2020,10,02,12,24,20.20
2020,10,02,12,25,20.10
2020,10,02,12,26,20.10
2020,10,02,12,27,20.10
2020,10,02,12,28,20.10
2020,10,02,12,29,20.10
2020,10,02,12,30,20.10
2020,10,02,12,31,20.10
2020,10,02,12,32,20.00
2020,10,02,12,33,20.00
2020,10,02,12,34,19.90
2020,10,02,12,35,19.90
2020,10,02,12,36,19.90
2020,10,02,12,37,19.90
2020,10,02,12,38,19.90
2020,10,02,12,39,20.00
2020,10,02,12,40,20.00
2020,10,02,12,41,20.00
2020,10,02,12,42,20.10
2020,10,02,12,43,20.10
2020,10,02,12,44,20.10
2020,10,02,12,45,20.10
2020,10,02,12,46,20.10
2020,10,02,12,47,20.10
2020,10,02,12,48,20.10
2020,10,02,12,49,20.00
2020,10,02,12,50,20.00
2020,10,02,12,51,19.90
2020,10,02,12,52,19.90
2020,10,02,12,53,19.90
2020,10,02,12,54,19.90
2020,10,02,12,55,19.90
2020,10,02,12,56,19.80
2020,10,02,12,57,19.80
2020,10,02,12,58,19.80
2020,10,02,12,59,19.80
2020,10,02,13,00,19.70
2020,10,02,13,01,19.70
2020,10,02,13,02,19.70
2020,10,02,13,03,19.70
2020,10,02,13,04,19.70
2020,10,02,13,05,19.70
2020,10,02,13,06,19.70
2020,10,02,13,07,19.70
2020,10,02,13,08,19.70
2020,10,02,13,09,19.80
2020,10,02,13,10,19.80
2020,10,02,13,11,19.80
2020,10,02,13,12,19.80
2020,10,02,13,13,19.80
2020,10,02,13,14,19.90
2020,10,02,13,15,19.90
2020,10,02,13,16,19.90
2020,10,02,13,17,19.80
2020,10,02,13,18,19.80
2020,10,02,13,19,19.80
2020,10,02,13,20,19.80
2020,10,02,13,21,19.70
2020,10,02,13,22,19.70
2020,10,02,13,23,19.70
2020,10,02,13,24,19.70
2020,10,02,13,25,19.80
2020,10,02,13,26,19.80
2020,10,02,13,27,19.80
2020,10,02,13,28,19.70
2020,10,02,13,29,19.70
2020,10,02,13,30,19.70
2020,10,02,13,31,19.70
2020,10,02,13,32,19.60
2020,10,02,13,33,19.60
2020,10,02,13,34,19.60
2020,10,02,13,35,19.60
2020,10,02,13,36,19.60
2020,10,02,13,37,19.60
2020,10,02,13,38,19.60
2020,10,02,13,39,19.60
2020,10,02,13,40,19.60
2020,10,02,13,41,19.60
2020,10,02,13,42,19.50
2020,10,02,13,43,19.40
2020,10,02,13,44,19.40
2020,10,02,13,45,19.30
2020,10,02,13,46,19.20
2020,10,02,13,47,19.10
2020,10,02,13,48,19.10
2020,10,02,13,49,19.00
2020,10,02,13,50,19.00
2020,10,02,13,51,19.00
2020,10,02,13,52,19.00
2020,10,02,13,53,18.90
2020,10,02,13,54,18.90
2020,10,02,13,55,18.90
2020,10,02,13,56,18.90
2020,10,02,13,57,19.00
2020,10,02,13,58,19.00
2020,10,02,13,59,19.10
2020,10,02,14,00,19.10
2020,10,02,14,01,19.10
2020,10,02,14,02,19.20
2020,10,02,14,03,19.20
2020,10,02,14,04,19.30
2020,10,02,14,05,19.30
2020,10,02,14,06,19.30
2020,10,02,14,07,19.30
2020,10,02,14,08,19.40
2020,10,02,14,09,19.30
2020,10,02,14,10,19.40
2020,10,02,14,11,19.40
2020,10,02,14,12,19.40
2020,10,02,14,13,19.40
2020,10,02,14,14,19.40
2020,10,02,14,15,19.40
2020,10,02,14,16,19.40
2020,10,02,14,17,19.40
2020,10,02,14,18,19.50
2020,10,02,14,19,19.50
2020,10,02,14,20,19.60
2020,10,02,14,21,19.60
2020,10,02,14,22,19.70
2020,10,02,14,23,19.70
2020,10,02,14,24,19.70
2020,10,02,14,25,19.70
2020,10,02,14,26,19.80
2020,10,02,14,27,19.80
2020,10,02,14,28,19.80
2020,10,02,14,29,19.90
2020,10,02,14,30,19.90
2020,10,02,14,31,19.90
2020,10,02,14,32,19.90
2020,10,02,14,33,19.90
2020,10,02,14,34,19.90
2020,10,02,14,35,20.00
2020,10,02,14,36,20.00
2020,10,02,14,37,20.10
2020,10,02,14,38,20.10
2020,10,02,14,39,20.20
2020,10,02,14,40,20.20
2020,10,02,14,41,20.20
2020,10,02,14,42,20.30
2020,10,02,14,43,20.30
2020,10,02,14,44,20.40
2020,10,02,14,45,20.40
2020,10,02,14,46,20.40
2020,10,02,14,47,20.40
2020,10,02,14,48,20.40
2020,10,02,14,49,20.40
2020,10,02,14,50,20.40
2020,10,02,14,51,20.40
2020,10,02,14,52,20.40
2020,10,02,14,53,20.50
2020,10,02,14,54,20.50
2020,10,02,14,55,20.60
2020,10,02,14,56,20.60
2020,10,02,14,57,20.60
2020,10,02,14,58,20.70
2020,10,02,14,59,20.70
2020,10,02,15,00,20.70
2020,10,02,15,01,20.80
2020,10,02,15,02,20.80
2020,10,02,15,03,20.80
2020,10,02,15,04,20.80
2020,10,02,15,05,20.80
2020,10,02,15,06,20.90
2020,10,02,15,07,20.90
2020,10,02,15,08,20.90
2020,10,02,15,09,20.90
2020,10,02,15,10,20.90
2020,10,02,15,11,21.00
2020,10,02,15,12,21.00
2020,10,02,15,13,21.00
2020,10,02,15,14,21.10
2020,10,02,15,15,21.10
2020,10,02,15,16,21.20
2020,10,02,15,17,21.20
2020,10,02,15,18,21.20
2020,10,02,15,19,21.20
2020,10,02,15,20,21.30
2020,10,02,15,21,21.30
2020,10,02,15,22,21.30
2020,10,02,15,23,21.40
2020,10,02,15,24,21.40
2020,10,02,15,25,21.50
2020,10,02,15,26,21.50
2020,10,02,15,27,21.50
2020,10,02,15,28,21.60
2020,10,02,15,29,21.60
2020,10,02,15,30,21.70
2020,10,02,15,31,21.70
2020,10,02,15,32,21.80
2020,10,02,15,33,21.70
2020,10,02,15,34,21.70
2020,10,02,15,35,21.70
2020,10,02,15,36,21.70
2020,10,02,15,37,21.70
2020,10,02,15,38,21.70
2020,10,02,15,39,21.70
2020,10,02,15,40,21.70
2020,10,02,15,41,21.60
2020,10,02,15,42,21.50
2020,10,02,15,43,21.40
2020,10,02,15,44,21.40
2020,10,02,15,45,21.30
2020,10,02,15,46,21.20
2020,10,02,15,47,21.20
2020,10,02,15,48,21.10
2020,10,02,15,49,21.10
2020,10,02,15,50,21.00
2020,10,02,15,51,21.00
2020,10,02,15,52,20.90
2020,10,02,15,53,20.90
2020,10,02,15,54,20.90
2020,10,02,15,55,20.80
2020,10,02,15,56,20.80
2020,10,02,15,57,20.70
2020,10,02,15,58,20.70
2020,10,02,15,59,20.70
2020,10,02,16,00,20.70
2020,10,02,16,01,20.70
2020,10,02,16,02,20.70
2020,10,02,16,03,20.70
2020,10,02,16,04,20.70
2020,10,02,16,05,20.70
2020,10,02,16,06,20.70
2020,10,02,16,07,20.70
2020,10,02,16,08,20.70
2020,10,02,16,09,20.70
2020,10,02,16,10,20.70
2020,10,02,16,11,20.70
2020,10,02,16,12,20.70
2020,10,02,16,13,20.70
2020,10,02,16,14,20.70
2020,10,02,16,15,20.70
2020,10,02,16,16,20.70
2020,10,02,16,17,20.60
2020,10,02,16,18,20.60
2020,10,02,16,19,20.60
2020,10,02,16,20,20.60
2020,10,02,16,21,20.50
2020,10,02,16,22,20.50
2020,10,02,16,23,20.50
2020,10,02,16,24,20.40
2020,10,02,16,25,20.40
2020,10,02,16,26,20.40
2020,10,02,16,27,20.40
2020,10,02,16,28,20.40
2020,10,02,16,29,20.40
2020,10,02,16,30,20.40
2020,10,02,16,31,20.40
2020,10,02,16,32,20.40
2020,10,02,16,33,20.40
2020,10,02,16,34,20.40
2020,10,02,16,35,20.40
2020,10,02,16,36,20.40
2020,10,02,16,37,20.30
2020,10,02,16,38,20.30
2020,10,02,16,39,20.20
2020,10,02,16,40,20.20
2020,10,02,16,41,20.20
2020,10,02,16,42,20.20
2020,10,02,16,43,20.20
2020,10,02,16,44,20.20
2020,10,02,16,45,20.10
2020,10,02,16,46,20.10
2020,10,02,16,47,20.10
2020,10,02,16,48,20.10
2020,10,02,16,49,20.10
2020,10,02,16,50,20.10
2020,10,02,16,51,20.10
2020,10,02,16,52,20.10
2020,10,02,16,53,20.10
2020,10,02,16,54,20.10
2020,10,02,16,55,20.10
2020,10,02,16,56,20.20
2020,10,02,16,57,20.20
2020,10,02,16,58,20.20
2020,10,02,16,59,20.20
2020,10,02,17,00,20.20
2020,10,02,17,01,20.10
2020,10,02,17,02,20.10
2020,10,02,17,03,20.10
2020,10,02,17,04,20.10
2020,10,02,17,05,20.10
2020,10,02,17,06,20.00
2020,10,02,17,07,20.00
2020,10,02,17,08,20.00
2020,10,02,17,09,19.90
2020,10,02,17,10,19.90
2020,10,02,17,11,19.90
2020,10,02,17,12,19.90
2020,10,02,17,13,20.00
2020,10,02,17,14,20.00
2020,10,02,17,15,20.00
2020,10,02,17,16,20.00
2020,10,02,17,17,20.00
2020,10,02,17,18,20.00
2020,10,02,17,19,20.00